Location: Killam
(52.7910°N, 111.8608°W)
Time: 11:03:27
(UTC+00:00)

SR - Pass Details

Date: 18 February 2026
Orbit: 573 x 848 km, 66.7° (Epoch: 7 March)

Event Time Altitude Azimuth Distance (km) Brightness Sun altitude
Exits shadow 11:13:32 20° 115° (ESE) 1,395 ? -31.0°
Maximum altitude 11:13:45 20° 111° (ESE) 1,394 ? -31.0°
Drops below altitude 10° 11:16:58 10° 64° (ENE) 1,978 ? -30.6°
Sets 11:19:46 0° 48° (NE) 2,933 ? -30.2°
